Regional Weather Roundup
Issued by NWS

Home | Current Version | Previous Version | Text Only | Print | Product List | Glossary Off
Versions: 1 2 3 4 5 6 7 8 9 10 11 12 13 14 15 16 17 18 19 20 21 22 23 24 25 26 27 28 29 30 31 32 33 34 35 36 37 38 39 40 41 42 43 44 45 46 47 48 49 50

000
ASUS43 KMPX 281101
RWRMN
WEATHER ROUNDUP FOR MINNESOTA
NATIONAL WEATHER SERVICE TWIN CITIES/CHANHASSEN MN
600 AM CDT SUN AUG 28 2016


NOTE: "FAIR" INDICATES FEW OR NO CLOUDS BELOW 12,000 FEET WITH NO
SIGNIFICANT WEATHER AND/OR OBSTRUCTIONS TO VISIBILITY. N/A MEANS
CURRENT SKY AND/OR WEATHER CONDITIONS ARE NOT AVAILABLE.

MNZ060>063-068>070-281200-
   Twin Cities Metro

CITY           SKY/WX    TMP DP  RH WIND       PRES   REMARKS
TWIN CITIES    FOG       61  60  97 E6        30.11S VSB 1/4
ST PAUL        CLOUDY    60  59  96 CALM      30.11F
CRYSTAL        FOG       57  55  93 CALM      30.10S VSB 1/4
BLAINE         FOG       63  63 100 CALM      30.12S VSB<1/4
LAKEVILLE      FOG       54  54 100 CALM      30.11S VSB 1/4
EDEN PRAIRIE   CLOUDY    62  60  93 NE5       30.09S FOG
LAKEVILLE      FOG       54  54 100 CALM      30.11S VSB 1/4
SOUTH ST PAUL  FOG       61  61  99 CALM      30.11S VSB<1/4
LAKE ELMO      DRZL/FOG  61  61 100 NE5       30.13S VSB<1/4
$$
MNZ001>005-007-008-013>017-022>024-027-028-281200-
   Northwest Minnesota

CITY           SKY/WX    TMP DP  RH WIND       PRES   REMARKS
BEMIDJI        CLOUDY    58  58 100 S6        30.09R FOG
HALLOCK        CLEAR     57  55  94 SE8       29.99R
ROSEAU         CLOUDY    54  48  82 SE3       30.04R
WARROAD        CLEAR     52  48  87 SE3       30.05R FOG
THIEF RVR FALL CLEAR     54  54 100 SE8       30.04R
CROOKSTON      CLEAR     57  57 100 S7        30.02R
FOSSTON        CLEAR     57  55  94 SE7       30.05S
DETROIT LAKES  CLOUDY    59  59 100 SE8       30.06F FOG
MOORHEAD       CLEAR     61  59  94 SE8       30.01F
PARK RAPIDS    FOG       60  59  96 SE7       30.09R VSB 1/2
MAHNOMEN       FAIR      58  57  96 SE8       30.04S
$$
MNZ006-009>011-018-025>026-281200-
   North Central Minnesota

CITY           SKY/WX    TMP DP  RH WIND       PRES   REMARKS
BAUDETTE       FOG       55  55 100 SE6       30.06R VSB 1/4
FLAG ISLAND    CLOUDY    63  61  94 CALM      30.03R FOG
INTL FALLS     FOG       56  55  97 VRB3      30.09R VSB 1/2
WASKISH          N/A     59  57  94 S5        30.08R FOG
BIG FORK       FOG       57  57 100 CALM      30.11R VSB 1
LONGVILLE      CLOUDY    61  59  94 S6        30.10S
GRAND RAPIDS   CLOUDY    59  58  96 S9        30.14R
ORR            FOG       54  52  94 CALM      30.10R VSB 3/4
COOK           FOG       52  50  93 CALM      30.13R VSB 1/4
WALKER         CLOUDY    58  58  99 S5        30.09S FOG
$$
MNZ012-019>021-037-281200-
   Northeast Minnesota

CITY           SKY/WX    TMP DP  RH WIND       PRES   REMARKS
DULUTH         CLOUDY    60  59  96 SW5       30.14R
ELY            FOG       48  48 100 CALM      30.13R VSB 1/2
HIBBING        FOG       54  54 100 CALM      30.13R VSB 1/2
EVELETH        FOG       54  53  98 CALM      30.14S VSB 3/4
DULUTH HARBOR  CLOUDY    61  59  94 S7        30.14R
TWO HARBORS    CLEAR     55  52  88 CALM      30.12S
SILVER BAY     MOCLDY    52  52 100 CALM      30.13R FOG
G MARAIS ARPRT CLEAR     52  48  87 CALM      30.14R
$$
MNZ029>031-032-039>041-046>048-054>057-064-281200-
   West Central Minnesota

CITY           SKY/WX    TMP DP  RH WIND       PRES   REMARKS
FERGUS FALLS   CLOUDY    63  63 100 SE8       30.06R
WHEATON        LGT RAIN  64  61  88 SE9       30.03F
MORRIS         CLOUDY    63  63 100 CALM      30.04S
ALEXANDRIA     LGT RAIN  62  61  96 SE6       30.07F
ELBOW LAKE     FAIR      62  62  97 S8        30.06R
WADENA         CLOUDY    61  59  94 SE6       30.08R
GLENWOOD       RAIN      61  61 100 SE10      30.09F
APPLETON       TSTM      64  61  88 SE12G17   30.05S
BENSON         CLOUDY    63  59  88 S10       30.08S
ORTONVILLE     CLOUDY    63  59  88 S3        30.05S THUNDER
MADISON        TSTM      64  61  88 N10       30.09R
WILLMAR        CLOUDY    63  63 100 CALM      30.13R
$$
MNZ033>034-036-042>043-049>051-058-059-281200-
   Central Minnesota

CITY           SKY/WX    TMP DP  RH WIND       PRES   REMARKS
ST CLOUD       FOG       60  60 100 E3        30.11S VSB 1/4
SAUK CENTRE    LGT RAIN  60  60 100 SE7       30.09F
PAYNESVILLE    LGT RAIN  60  61 100 CALM      30.12R
AITKIN         CLOUDY    63  59  88 S7        30.10F
PINE RIVER     CLOUDY    59  59 100 S3        30.13S FOG
BRAINERD       FOG       59  59 100 SE3       30.11S VSB 3/4
STAPLES        CLOUDY    59  59 100 SE5       30.09S FOG
LONG PRAIRIE   LGT RAIN  59  59 100 E7        30.08F
LITTLE FALLS   LGT RAIN  61  59  94 SE6       30.11S VSB 3/4
LITCHFIELD     CLOUDY    63  61  94 CALM      30.11R FOG
BUFFALO        FOG       60  58  94 CALM      30.12R VSB 3/4
MAPLE LAKE     FOG       61  61  99 CALM      30.13R VSB 1/2
HUTCHINSON     FOG       60  60 100 E3        30.11R VSB 1/2
$$
MNZ037-044-045-052-053-281200-
   East Central Minnesota

CITY           SKY/WX    TMP DP  RH WIND       PRES   REMARKS
PRINCETON      FOG       63  61  94 CALM      30.12S VSB 1/2
MORA           CLOUDY    59  59 100 CALM      30.14S
CAMBRIDGE      FOG       63  59  88 CALM      30.11S VSB 1/2
RUSH CITY      LGT RAIN  60  59  98 CALM      30.13S
MOOSE LAKE     CLOUDY    59  55  88 CALM      30.12S
HINCKLEY       CLOUDY    61  61 100 E3        30.13S
CLOQUET        CLOUDY    59  57  94 S3        30.14R
MCGREGOR       CLOUDY    59  57  94 E3        30.13F
$$
MNZ071>073-080-081-089-090-097-098-281200-
   Southwest Minnesota

CITY           SKY/WX    TMP DP  RH WIND       PRES   REMARKS
MONTEVIDEO     TSTM      63  63 100 E7        30.11S
GRANITE FALLS  CLOUDY    66  64  91 N7        30.11R THUNDER
CANBY          MOCLDY    65  63  93 NE5       30.09R
MARSHALL       CLOUDY    61  60  97 N7        30.08R
REDWOOD FALLS  PTCLDY    62  60  93 E3        30.07R
OLIVIA         CLOUDY    63  59  88 E7        30.07S
PIPESTONE      CLEAR     64  63  94 S8        30.07R
WINDOM         CLEAR     64  63  94 S5        30.08S FOG
WORTHINGTON    CLEAR     61  60  97 S6        30.10R FOG
JACKSON          N/A     63  61  94 S8        30.10S FOG
TRACY          CLEAR     64  63  96 S7        30.06S
SLAYTON        CLEAR     57  57 100 S8        30.08F
$$
MNZ065>067-074>077-082>085-091>093-281200-
   South Central Minnesota

CITY           SKY/WX    TMP DP  RH WIND       PRES   REMARKS
MANKATO        CLEAR     61  57  88 SE7       30.11R
NEW ULM          N/A     63  63 100 SE8       30.08F
ST JAMES       CLEAR     55  55 100 SE3       30.09S FOG
FAIRMONT       FOG       60  59  96 S6        30.10S VSB 1/2
GLENCOE        FOG       59  59 100 CALM      30.09S VSB 3/4
FARIBAULT      CLOUDY    55  55 100 CALM        N/A  FOG
OWATONNA       MOCLDY    63  61  94 SE5       30.12R FOG
WASECA         CLEAR     59  59 100 E3        30.13R FOG
ALBERT LEA     FOG       61  61 100 S3        30.13R VSB 1/4
$$
MNZ078>079-086>088-094>096-281200-
   Southeast Minnesota

CITY           SKY/WX    TMP DP  RH WIND       PRES   REMARKS
ROCHESTER      FOG       59  59 100 S5        30.15R VSB 1/2
RED WING       FOG       64  63  94 CALM      30.11R VSB 1/4
DODGE CENTER   FOG       57  55  94 SE5       30.13S VSB 1/2
WINONA         FOG       63  63 100 CALM      30.14R VSB 1/2
AUSTIN         FOG       61  61 100 CALM      30.13R VSB 1/2
PRESTON        FOG       61  60  96 CALM      30.15S VSB<1/4
$$
ABBREVIATIONS USED IN REMARKS
   TC - TEMPERATURES IN CELSIUS
  WCI - WIND CHILL INDEX
   HX - HEAT INDEX
  VSB - VISIBILITY
$$




USA.gov is the U.S. government's official web portal to all federal, state and local government web resources and services.